• Join FlightAware (Why Join?)
  • Login
  • US Flag GB Flag 
09:31 EST


 

Airport Tracker/Info


-or-


 

Live Flight TrackerFlight Track Log ✈ UAL4236 ✈ 07-Apr-2013 ✈ KIAH - KELP

Flight Track Log - Related Links

Times and Time Zones

All times are in EDT time to prevent confusion due to time zone crossing. See the UAL4236 flight status page for this flight to view local times or setup timezone preferences in your user account.

Time Position Orientation Groundspeed Altitude Reporting Facility
EDT Latitude Longitude Course Direction KTS MPH feet Rate Location/Type
10:04 29.9617 -95.3436 276° West 145 167 800  Level Houston Center
10:06 29.9186 -95.4017 229° Southwest 240 276 3,200 1,467 Climbing Houston Center
10:07 29.8850 -95.4686 240° Southwest 243 280 4,100 1,487 Climbing Houston Center
10:08 30.0307 -95.7759 277° West  Level FlightAware Approximate
10:08 29.8483 -95.5283 235° Southwest 247 284 6,100  Level Houston Center
10:09 30.0406 -95.8872 276° West  Level FlightAware Approximate
10:09 29.8456 -95.6128 268° West 276 318 8,300  Level Houston Center
10:10 30.0499 -95.9986 276° West  Level FlightAware Approximate
10:10 29.8836 -95.6878 300° West 271 312 10,200  Level Houston Center
10:11 29.9267 -95.7753 300° West 312 359 11,000 1,073 Climbing Houston Center
10:12 29.9756 -95.8706 301° West 343 395 12,400 1,366 Climbing Houston Center
10:13 30.0233 -95.9683 299° West 349 402 13,800 1,415 Climbing Houston Center
10:14 30.0753 -96.0903 296° West 357 411 15,300 1,366 Climbing Houston Center
10:15 30.0933 -96.2047 280° West 363 418 16,600 1,210 Climbing Houston Center
10:16 30.1108 -96.3192 280° West 365 420 17,800 1,171 Climbing Houston Center
10:17 30.1286 -96.4322 280° West 365 420 19,000 1,220 Climbing Houston Center
10:18 30.1458 -96.5500 280° West 367 422 20,300 1,306 Climbing Houston Center
10:19 30.1667 -96.6889 280° West 370 426 21,700 1,210 Climbing Houston Center
10:20 30.1842 -96.8086 280° West 373 429 22,800 1,024 Climbing Houston Center
10:21 30.2033 -96.9297 280° West 376 433 23,800 927 Climbing Houston Center
10:22 30.2208 -97.0550 279° West 387 445 24,700 871 Climbing Houston Center
10:23 30.2394 -97.1789 280° West 388 447 25,600 968 Climbing Houston Center
10:24 30.2575 -97.3036 280° West 388 447 26,700 1,161 Climbing Houston Center
10:25 30.2744 -97.4244 279° West 380 437 28,000 1,268 Climbing Houston Center
10:26 30.2922 -97.5411 280° West 367 422 29,300 1,317 Climbing Houston Center
10:27 30.3083 -97.6578 279° West 362 417 30,700 1,306 Climbing Houston Center
10:28 30.3272 -97.7747 281° West 363 418 32,000 1,403 Climbing Houston Center
10:29 30.3536 -97.9078 283° West 361 415 33,600 968 Climbing Houston Center
10:30 30.3756 -98.0222 283° West 358 412 34,000 194 Climbing Houston Center
10:31 30.3994 -98.1467 283° West 384 442 34,000  Level Houston Center
10:33 30.4236 -98.2719 283° West 391 450 34,000 48 Level Houston Center
10:34 30.4483 -98.3975 283° West 393 452 34,100 488 Climbing Houston Center
10:35 30.4708 -98.5208 282° West 388 447 35,000 585 Climbing Houston Center
10:36 30.4953 -98.6447 283° West 390 449 35,300 484 Climbing Houston Center
10:37 30.5186 -98.7681 282° West 387 445 36,000 339 Climbing Houston Center
10:38 30.5422 -98.8925 282° West 390 449 36,000  Level Houston Center
10:39 30.5689 -99.0336 282° West 382 440 36,000  Level Houston Center
10:40 30.5903 -99.1461 282° West 379 436 36,000  Level Houston Center
10:41 30.6119 -99.2633 282° West 375 432 36,000  Level Houston Center
10:42 30.6331 -99.3811 282° West 375 432 36,000  Level Houston Center
10:43 30.6558 -99.5003 283° West 376 433 36,000  Level Houston Center
10:44 30.6806 -99.6436 281° West 378 435 36,000  Level Houston Center
10:45 30.7031 -99.7622 282° West 378 435 36,000  Level Houston Center
10:46 30.7228 -99.8772 281° West 371 427 36,000  Level Houston Center
10:47 30.7433 -99.9989 281° West 380 437 36,000  Level Houston Center
10:48 30.7656 -100.1186 282° West 380 437 36,000 -48 Level Houston Center
10:49 30.7922 -100.2686 282° West 394 453 35,900  Descending Houston Center
10:50 30.8128 -100.3828 282° West 362 417 36,000 49 Climbing Houston Center
10:51 30.8325 -100.5047 281° West 372 428 36,000  Level Houston Center
10:52 30.8544 -100.6272 282° West 385 443 36,000  Level Houston Center
10:53 30.8750 -100.7478 281° West 387 445 36,000  Level Houston Center
10:54 30.8939 -100.8650 281° West 372 428 36,000  Level Houston Center
10:55 30.9189 -101.0103 281° West 387 445 36,000  Level Houston Center
10:56 30.9397 -101.1286 282° West 380 437 36,000  Level Houston Center
10:57 30.9575 -101.2517 280° West 384 442 36,000  Level Houston Center
10:58 30.9761 -101.3631 281° West 381 438 36,000  Level Houston Center
10:59 30.9981 -101.4828 282° West 378 435 36,000  Level Houston Center
11:00 31.0219 -101.6267 281° West 378 435 36,000  Level Houston Center
11:01 31.0417 -101.7481 281° West 379 436 36,000  Level Houston Center
11:02 31.0617 -101.8700 281° West 382 440 36,000  Level Houston Center
11:03 31.0814 -101.9914 281° West 380 437 36,000  Level Houston Center
11:05 31.1008 -102.1139 281° West 380 437 36,000  Level Houston Center
11:06 31.1189 -102.2358 280° West 378 435 36,000  Level Houston Center
11:07 31.1453 -102.3931 281° West 380 437 36,000  Level Albuquerque Center
11:08 31.1642 -102.5144 280° West 379 436 36,000  Level Albuquerque Center
11:09 31.1819 -102.6317 280° West 375 432 36,000  Level Albuquerque Center
11:10 31.2047 -102.7797 280° West 382 440 36,000  Level Albuquerque Center
11:11 31.2239 -102.9033 280° West 385 443 36,000  Level Albuquerque Center
11:12 31.2428 -103.0261 280° West 385 443 36,000  Level Albuquerque Center
11:13 31.2619 -103.1503 280° West 387 445 36,000  Level Albuquerque Center
11:14 31.2792 -103.2736 279° West 386 444 36,000  Level Albuquerque Center
11:15 31.2978 -103.3956 280° West 382 440 36,000 -194 Level Albuquerque Center
11:16 31.3164 -103.5200 280° West 385 443 35,600 -774 Descending Albuquerque Center
11:17 31.3383 -103.6678 280° West 385 443 34,400 -774 Descending Albuquerque Center
11:18 31.3564 -103.7967 279° West 390 449 34,000 -194 Descending Albuquerque Center
11:19 31.3761 -103.9225 280° West 393 452 34,000  Level Albuquerque Center
11:20 31.3953 -104.0506 280° West 399 459 34,000  Level Albuquerque Center
11:21 31.4125 -104.1767 279° West 394 453 34,000  Level Albuquerque Center
11:22 31.4317 -104.3022 280° West 393 452 34,000 -341 Level Albuquerque Center
11:23 31.4486 -104.4283 279° West 394 453 33,300 -1,500 Descending Albuquerque Center
11:24 31.4681 -104.5856 278° West 401 461 30,900 -2,177 Descending Albuquerque Center
11:25 31.4814 -104.7167 277° West 406 467 28,800 -2,081 Descending Albuquerque Center
11:26 31.4942 -104.8475 277° West 408 470 26,600 -2,081 Descending Albuquerque Center
11:27 31.5081 -104.9794 277° West 408 470 24,500 -2,081 Descending Albuquerque Center
11:28 31.5219 -105.1139 277° West 413 475 22,300 -2,323 Descending Albuquerque Center
11:29 31.5367 -105.2692 276° West 410 472 19,700 -2,256 Descending Albuquerque Center
11:30 31.5447 -105.3839 275° West 383 441 17,900 -1,978 Descending Albuquerque Center
11:31 31.5522 -105.4569 277° West 371 427 16,700 -1,826 Descending Albuquerque Center
11:32 31.5594 -105.5097 279° West 374 430 15,800 -1,967 Descending Albuquerque Center
11:32 31.5642 -105.5764 275° West 367 422 14,700 -1,935 Descending Albuquerque Center
11:33 31.5711 -105.6283 279° West 369 425 13,800 -1,800 Descending Albuquerque Center
11:33 31.5758 -105.6956 275° West 364 419 12,900 -1,258 Descending Albuquerque Center
11:34 31.5822 -105.7419 279° West 355 409 12,500 -689 Descending Albuquerque Center
11:34 31.5917 -105.8039 280° West 341 392 12,200 -1,186 Descending Albuquerque Center
11:35 31.6314 -105.8911 298° West 293 337 10,800 -1,408 Descending Albuquerque Center
11:36 31.6575 -105.9403 302° West 281 323 9,900 -1,400 Descending Albuquerque Center
11:36 31.6711 -105.9661 302° West 256 295 9,400 -1,452 Descending Albuquerque Center
11:37 31.6944 -106.0133 300° West 262 302 8,400 -1,475 Descending Albuquerque Center
11:37 31.7061 -106.0397 297° West 256 295 7,900 -1,065 Descending Albuquerque Center
11:38 31.7289 -106.0831 302° West 249 287 7,300 -900 Descending Albuquerque Center
11:38 31.7375 -106.1067 293° West 230 265 7,000 -484 Descending Albuquerque Center
11:39 31.7511 -106.1486 291° West 219 252 6,800 -590 Descending Albuquerque Center
11:39 31.7614 -106.1781 292° West 213 245 6,400 -677 Descending Albuquerque Center
11:40 31.7742 -106.2097 295° West 200 230 6,100 -492 Descending Albuquerque Center
11:40 31.7831 -106.2275 300° West 157 181 5,900 -581 Descending Albuquerque Center
11:41 31.7925 -106.2492 297° West 141 162 5,500 -545 Descending Albuquerque Center